User: anonymous   Login
Location: Unspecified
(0.0000°N, 0.0000°E)
Time: 20:11:26
(UTC+00:00)
Language:

SR 7A - Orbit

View from above orbital plane
View from above orbital plane
View from above satellite
View from above satellite

Ground track
Ground track

The orbit data is extracted from the following two-line orbital elements,

1 00730U 64001D   18022.48883062 -.00000047  00000-0  48355-5 0  9995
2 00730  69.9064  21.6068 0013431 359.1446 165.9688 13.95588853633160
Epoch (UTC): 22 January 2018 11:43:54
Eccentricity: 0.0013431
inclination: 69.9064°
perigee height: 899 km
apogee height: 919 km
right ascension of ascending node: 21.6068°
argument of perigee: 359.1446°
revolutions per day: 13.95588853
mean anomaly at epoch: 165.9688°
orbit number at epoch: 63316

The dashed part of the orbit path shows where the satellite is in the earth's shadow,  

DLR